| time (UTC) | temp F | wind direction | speed MPH | gust MPH | rain 1hr in | rain 24hr in | rain mn in | humidity % | barometer mb |
| 20260506003905 | 77 | 30 | 8.0 | 16.0 | 0.00 | 0.00 | 0.00 | 19 | 1005.7 |
| 20260506002917 | 78 | 39 | 8.0 | 20.0 | 0.00 | 0.00 | 0.00 | 18 | 1005.8 |
| 20260506001900 | 78 | 20 | 10.0 | 21.0 | 0.00 | 0.00 | 0.00 | 17 | 1005.7 |
| 20260506000912 | 78 | 40 | 10.0 | 16.0 | 0.00 | 0.00 | 0.00 | 18 | 1005.8 |
| 20260505235908 | 78 | 22 | 9.0 | 21.0 | 0.00 | 0.00 | 0.00 | 16 | 1005.8 |
| 20260505234914 | 78 | 39 | 8.0 | 15.0 | 0.00 | 0.00 | 0.00 | 18 | 1005.7 |
| 20260505233903 | 79 | 22 | 8.0 | 20.0 | 0.00 | 0.00 | 0.00 | 17 | 1005.8 |
| 20260505232850 | 79 | 16 | 8.0 | 16.0 | 0.00 | 0.00 | 0.00 | 18 | 1005.9 |
| 20260505231855 | 79 | 22 | 10.0 | 18.0 | 0.00 | 0.00 | 0.00 | 17 | 1005.8 |
| 20260505230852 | 79 | 30 | 7.0 | 16.0 | 0.00 | 0.00 | 0.00 | 18 | 1005.8 |
| 20260505225919 | 78 | 16 | 9.0 | 16.0 | 0.00 | 0.00 | 0.00 | 18 | 1006.0 |
| 20260505224848 | 79 | 20 | 11.0 | 22.0 | 0.00 | 0.00 | 0.00 | 17 | 1006.1 |
| 20260505223907 | 80 | 8 | 10.0 | 22.0 | 0.00 | 0.00 | 0.00 | 19 | 1006.2 |
| 20260505222851 | 80 | 7 | 10.0 | 18.0 | 0.00 | 0.00 | 0.00 | 18 | 1006.3 |
| 20260505221913 | 80 | 348 | 5.0 | 13.0 | 0.00 | 0.00 | 0.00 | 20 | 1006.3 |
| 20260505220915 | 79 | 352 | 6.0 | 12.0 | 0.00 | 0.00 | 0.00 | 20 | 1006.3 |
| 20260505215928 | 79 | 18 | 11.0 | 19.0 | 0.00 | 0.00 | 0.00 | 18 | 1006.7 |
| 20260505214853 | 79 | 6 | 6.0 | 15.0 | 0.00 | 0.00 | 0.00 | 20 | 1006.8 |
| 20260505213907 | 79 | 348 | 7.0 | 15.0 | 0.00 | 0.00 | 0.00 | 22 | 1006.8 |
| 20260505212927 | 78 | 9 | 5.0 | 12.0 | 0.00 | 0.00 | 0.00 | 21 | 1006.8 |
| 20260505211853 | 79 | 17 | 5.0 | 9.0 | 0.00 | 0.00 | 0.00 | 24 | 1007.0 |
| 20260505210904 | 77 | 22 | 0.0 | 8.0 | 0.00 | 0.00 | 0.00 | 25 | 1007.3 |
| 20260505205907 | 77 | 16 | 5.0 | 13.0 | 0.00 | 0.00 | 0.00 | 24 | 1007.5 |
| 20260505204922 | 76 | 6 | 4.0 | 12.0 | 0.00 | 0.00 | 0.00 | 24 | 1007.5 |
| 20260505203921 | 77 | 355 | 4.0 | 16.0 | 0.00 | 0.00 | 0.00 | 22 | 1007.6 |
| 20260505202910 | 77 | 42 | 5.0 | 12.0 | 0.00 | 0.00 | 0.00 | 24 | 1007.6 |
| 20260505201900 | 76 | 321 | 3.0 | 11.0 | 0.00 | 0.00 | 0.00 | 25 | 1007.6 |
| 20260505200850 | 76 | 4 | 7.0 | 11.0 | 0.00 | 0.00 | 0.00 | 26 | 1007.9 |
| 20260505195928 | 76 | 275 | 4.0 | 7.0 | 0.00 | 0.00 | 0.00 | 25 | 1007.9 |
| 20260505194924 | 76 | 273 | 0.0 | 9.0 | 0.00 | 0.00 | 0.00 | 23 | 1008.0 |
| 20260505193925 | 75 | 269 | 1.0 | 6.0 | 0.00 | 0.00 | 0.00 | 27 | 1008.0 |
| 20260505192903 | 75 | 268 | 4.0 | 10.0 | 0.00 | 0.00 | 0.00 | 25 | 1008.0 |
| 20260505191925 | 74 | 260 | 1.0 | 7.0 | 0.00 | 0.00 | 0.00 | 26 | 1008.2 |
| 20260505190917 | 74 | 258 | 0.0 | 10.0 | 0.00 | 0.00 | 0.00 | 25 | 1008.4 |
| 20260505185917 | 73 | 244 | 2.0 | 11.0 | 0.00 | 0.00 | 0.00 | 25 | 1008.5 |
| 20260505184848 | 73 | 237 | 1.0 | 9.0 | 0.00 | 0.00 | 0.00 | 27 | 1008.5 |
| 20260505183926 | 72 | 232 | 5.0 | 9.0 | 0.00 | 0.00 | 0.00 | 26 | 1008.5 |
| 20260505182913 | 72 | 231 | 5.0 | 10.0 | 0.00 | 0.00 | 0.00 | 27 | 1008.6 |
| 20260505181926 | 72 | 215 | 7.0 | 10.0 | 0.00 | 0.00 | 0.00 | 26 | 1008.6 |
| 20260505180851 | 71 | 205 | 5.0 | 12.0 | 0.00 | 0.00 | 0.00 | 27 | 1008.6 |
| 20260505175903 | 70 | 230 | 7.0 | 11.0 | 0.00 | 0.00 | 0.00 | 27 | 1008.6 |
| 20260505174913 | 70 | 236 | 5.0 | 10.0 | 0.00 | 0.00 | 0.00 | 27 | 1008.6 |
| 20260505173857 | 70 | 244 | 7.0 | 11.0 | 0.00 | 0.00 | 0.00 | 27 | 1008.7 |
| 20260505172906 | 70 | 202 | 6.0 | 8.0 | 0.00 | 0.00 | 0.00 | 27 | 1008.7 |
| 20260505171917 | 70 | 196 | 6.0 | 9.0 | 0.00 | 0.00 | 0.00 | 27 | 1008.6 |
| 20260505170917 | 69 | 196 | 4.0 | 9.0 | 0.00 | 0.00 | 0.00 | 27 | 1008.6 |
| 20260505165849 | 69 | 198 | 8.0 | 12.0 | 0.00 | 0.00 | 0.00 | 28 | 1008.5 |
| 20260505164907 | 69 | 195 | 7.0 | 15.0 | 0.00 | 0.00 | 0.00 | 28 | 1008.5 |
| 20260505163909 | 69 | 217 | 7.0 | 13.0 | 0.00 | 0.00 | 0.00 | 29 | 1008.4 |
| 20260505162925 | 68 | 209 | 6.0 | 15.0 | 0.00 | 0.00 | 0.00 | 28 | 1008.2 |
| 20260505161900 | 68 | 213 | 7.0 | 13.0 | 0.00 | 0.00 | 0.00 | 28 | 1008.2 |
| 20260505160915 | 67 | 219 | 8.0 | 15.0 | 0.00 | 0.00 | 0.00 | 28 | 1008.1 |
| 20260505152851 | 63 | 243 | 5.0 | 10.0 | 0.00 | 0.00 | 0.00 | 45 | 1007.8 |
| 20260505151848 | 61 | 192 | 3.0 | 7.0 | 0.00 | 0.00 | 0.00 | 51 | 1007.8 |
| 20260505150920 | 61 | 188 | 5.0 | 9.0 | 0.00 | 0.00 | 0.00 | 50 | 1007.8 |
| 20260505124926 | 51 | 17 | 0.0 | 1.0 | 0.00 | 0.00 | 0.00 | 57 | 1005.9 |
| 20260505123901 | 52 | 17 | 0.0 | 1.0 | 0.00 | 0.00 | 0.00 | 56 | 1005.7 |
| 20260505122851 | 53 | 17 | 0.0 | 4.0 | 0.00 | 0.00 | 0.00 | 56 | 1005.6 |
| 20260505121859 | 54 | 17 | 1.0 | 5.0 | 0.00 | 0.00 | 0.00 | 53 | 1005.2 |
| 20260505120901 | 55 | 17 | 0.0 | 0.0 | 0.00 | 0.00 | 0.00 | 52 | 1005.2 |
| 20260505115905 | 55 | 17 | 0.0 | 0.0 | 0.00 | 0.00 | 0.00 | 50 | 1005.1 |
| 20260505114852 | 56 | 17 | 0.0 | 1.0 | 0.00 | 0.00 | 0.00 | 50 | 1004.9 |
| 20260505113910 | 57 | 17 | 0.0 | 3.0 | 0.00 | 0.00 | 0.00 | 48 | 1004.7 |
| 20260505112907 | 58 | 17 | 2.0 | 7.0 | 0.00 | 0.00 | 0.00 | 46 | 1004.5 |
| 20260505111855 | 59 | 18 | 6.0 | 9.0 | 0.00 | 0.00 | 0.00 | 44 | 1004.4 |
| 20260505110903 | 59 | 19 | 4.0 | 8.0 | 0.00 | 0.00 | 0.00 | 43 | 1004.1 |
| 20260505101900 | 59 | 5 | 5.0 | 8.0 | 0.00 | 0.00 | 0.00 | 43 | 1004.1 |
| 20260505100930 | 60 | 5 | 3.0 | 6.0 | 0.00 | 0.00 | 0.00 | 41 | 1004.1 |
| 20260505095922 | 61 | 5 | 4.0 | 11.0 | 0.00 | 0.00 | 0.00 | 40 | 1003.8 |
| 20260505094911 | 61 | 0 | 4.0 | 12.0 | 0.00 | 0.00 | 0.00 | 38 | 1003.6 |
| 20260505093910 | 61 | 16 | 7.0 | 15.0 | 0.00 | 0.00 | 0.00 | 38 | 1003.5 |
| 20260505092924 | 61 | 11 | 9.0 | 16.0 | 0.00 | 0.00 | 0.00 | 37 | 1003.2 |
| 20260505091915 | 62 | 7 | 10.0 | 17.0 | 0.00 | 0.00 | 0.00 | 36 | 1003.0 |
| 20260505090849 | 62 | 9 | 11.0 | 19.0 | 0.00 | 0.00 | 0.00 | 35 | 1003.0 |
| 20260505085850 | 62 | 9 | 11.0 | 20.0 | 0.00 | 0.00 | 0.00 | 34 | 1002.9 |
| 20260505084905 | 62 | 8 | 12.0 | 17.0 | 0.00 | 0.00 | 0.00 | 34 | 1002.9 |
| 20260505083925 | 63 | 7 | 11.0 | 18.0 | 0.00 | 0.00 | 0.00 | 34 | 1003.0 |
| 20260505082933 | 63 | 7 | 10.0 | 19.0 | 0.00 | 0.00 | 0.00 | 34 | 1002.9 |
| 20260505081915 | 63 | 10 | 12.0 | 19.0 | 0.00 | 0.00 | 0.00 | 33 | 1002.9 |
| 20260505080931 | 64 | 6 | 14.0 | 21.0 | 0.00 | 0.00 | 0.00 | 31 | 1002.9 |
| 20260505075857 | 65 | 15 | 14.0 | 19.0 | 0.00 | 0.00 | 0.00 | 30 | 1003.0 |
| 20260505074928 | 65 | 12 | 11.0 | 18.0 | 0.00 | 0.00 | 0.00 | 29 | 1003.0 |
| 20260505073904 | 65 | 17 | 11.0 | 17.0 | 0.00 | 0.00 | 0.00 | 29 | 1003.0 |
| 20260505072853 | 65 | 15 | 11.0 | 19.0 | 0.00 | 0.00 | 0.00 | 29 | 1003.0 |
| 20260505071851 | 65 | 13 | 11.0 | 17.0 | 0.00 | 0.00 | 0.00 | 29 | 1003.0 |
| 20260505070923 | 65 | 15 | 11.0 | 18.0 | 0.00 | 0.00 | 0.00 | 30 | 1002.9 |
| 20260505065931 | 65 | 12 | 11.0 | 17.0 | 0.00 | 0.00 | 0.00 | 31 | 1002.9 |
| 20260505064917 | 65 | 15 | 9.0 | 17.0 | 0.00 | 0.00 | 0.00 | 31 | 1002.9 |
| 20260505063900 | 65 | 15 | 10.0 | 18.0 | 0.00 | 0.00 | 0.00 | 30 | 1002.8 |
| 20260505062929 | 65 | 12 | 12.0 | 16.0 | 0.00 | 0.00 | 0.00 | 29 | 1002.9 |
| 20260505061922 | 65 | 12 | 10.0 | 15.0 | 0.00 | 0.00 | 0.00 | 31 | 1002.9 |
| 20260505060849 | 65 | 8 | 8.0 | 15.0 | 0.00 | 0.00 | 0.00 | 30 | 1002.9 |
| 20260505055932 | 65 | 11 | 10.0 | 15.0 | 0.00 | 0.00 | 0.00 | 30 | 1002.8 |
| 20260505054848 | 64 | 14 | 9.0 | 16.0 | 0.00 | 0.00 | 0.00 | 31 | 1002.8 |
| 20260505053908 | 65 | 15 | 8.0 | 15.0 | 0.00 | 0.00 | 0.00 | 32 | 1002.6 |
| 20260505052926 | 65 | 8 | 10.0 | 15.0 | 0.00 | 0.00 | 0.00 | 32 | 1002.4 |
| 20260505051917 | 66 | 16 | 7.0 | 12.0 | 0.00 | 0.00 | 0.00 | 32 | 1002.5 |
| 20260505050913 | 66 | 16 | 8.0 | 11.0 | 0.00 | 0.00 | 0.00 | 30 | 1002.5 |
| 20260505040921 | 68 | 15 | 4.0 | 10.0 | 0.00 | 0.00 | 0.00 | 30 | 1002.3 |
| 20260505035908 | 67 | 14 | 7.0 | 12.0 | 0.00 | 0.00 | 0.00 | 31 | 1002.1 |
| 20260505034931 | 67 | 12 | 6.0 | 10.0 | 0.00 | 0.00 | 0.00 | 33 | 1002.0 |
| 20260505033855 | 67 | 10 | 7.0 | 10.0 | 0.00 | 0.00 | 0.00 | 33 | 1001.9 |
| 20260505032921 | 69 | 12 | 7.0 | 11.0 | 0.00 | 0.00 | 0.00 | 32 | 1001.8 |
| 20260505031924 | 70 | 15 | 7.0 | 10.0 | 0.00 | 0.00 | 0.00 | 30 | 1001.7 |
| 20260505030915 | 71 | 13 | 5.0 | 10.0 | 0.00 | 0.00 | 0.00 | 29 | 1001.5 |
| 20260505025904 | 72 | 14 | 6.0 | 11.0 | 0.00 | 0.00 | 0.00 | 28 | 1001.4 |
| 20260505024916 | 73 | 10 | 8.0 | 11.0 | 0.00 | 0.00 | 0.00 | 27 | 1001.4 |
| 20260505023914 | 74 | 8 | 7.0 | 11.0 | 0.00 | 0.00 | 0.00 | 26 | 1001.3 |
| 20260505022900 | 75 | 11 | 7.0 | 11.0 | 0.00 | 0.00 | 0.00 | 25 | 1001.3 |
| 20260505021912 | 75 | 11 | 7.0 | 12.0 | 0.00 | 0.00 | 0.00 | 25 | 1001.2 |
| 20260505020911 | 76 | 9 | 7.0 | 11.0 | 0.00 | 0.00 | 0.00 | 25 | 1001.2 |
| 20260505015859 | 77 | 8 | 7.0 | 9.0 | 0.00 | 0.00 | 0.00 | 23 | 1001.3 |
| 20260505014908 | 78 | 5 | 4.0 | 13.0 | 0.00 | 0.00 | 0.00 | 23 | 1001.3 |
| 20260505013850 | 78 | 9 | 6.0 | 10.0 | 0.00 | 0.00 | 0.00 | 22 | 1001.3 |
| 20260505012916 | 79 | 7 | 6.0 | 11.0 | 0.00 | 0.00 | 0.00 | 21 | 1001.4 |
| 20260505011926 | 79 | 7 | 7.0 | 14.0 | 0.00 | 0.00 | 0.00 | 20 | 1001.4 |
| 20260505010905 | 80 | 11 | 11.0 | 16.0 | 0.00 | 0.00 | 0.00 | 18 | 1001.5 |
| 20260505005911 | 81 | 10 | 10.0 | 18.0 | 0.00 | 0.00 | 0.00 | 18 | 1001.6 |
| 20260505004859 | 81 | 12 | 10.0 | 19.0 | 0.00 | 0.00 | 0.00 | 17 | 1001.6 |